THOR 7

导读 | 豆包AI

THOR 7是由挪威卫星运营商Telenor Satellite Broadcasting主导的商用通信卫星,于2015年4月26日发射升空。该卫星运行于地球静止轨道,主要为欧洲、中东及北非区域提供高速Ka波段通信服务,支持海事通信、媒体广播和企业宽带等业务,显著扩充了北欧及周边海域的通信容量,助力海上互联网与跨区域信息传输服务升级。

基本信息
目录编号:
40613
目录名称:
THOR 7
国际标识:
2015-022A
轨道中心:
EARTH
卫星名称:
THOR 7
卫星全名:
--
卫星状态:
在轨 (已飞行3997 天)
发射日期:
2015-04-26 UTC
国别 :
挪威 (NO)
星等 :
--
轨道信息
数据来源 国际轨道数据 AOE轨道数据
星历时间 2026-04-05T05:20:25+0800
14小时前
查看轨道信息
2026-04-03T04:00:00+0800
2天前
查看轨道信息
半长轴 42164.644km 42164.756km
偏心率 0.0002703 0.0002645
轨道倾角 0.026° 0.016°
近地点辐角 262.426° 225.537°
升交点赤经 115.739° 146.171°
平近点角 134.471° 118.797°
近地点 35775.109km 35775.466km
远地点 35797.905km 35797.772km
周期 1436.092分钟 1436.098分钟
每日圈数 1.002721 1.002717
详细信息
使用方式:
暂无
2D轨道图
3D轨道图
轨道高度分析图
轨道倾角分析图
轨道综合分析图
查看轨道综合分析图